This demonstration page uses our WeatherBlox Daily Observations layout. Learn more.

Left ArrowRight Arrow

44.8408, -93.29828

Hourly Observations for February 23, 2022

Temp ( °F °C ) Dew Point ( °F °C ) Humidity (%) Winds ( mph kmh ) Pressure ( in mb ) Visibility ( mi km ) Precip ( " mm )
12:53 am 00:53 Mostly Clear 1 -17.2 -6 -21.1 72 72 NW 10 17 30.54 1034 10 16 0.00 0.00
1:53 am 01:53 Clear 0 -17.8 -7 -21.7 72 72 NNW 14 22 30.57 1035 10 16 0.00 0.00
2:53 am 02:53 Clear 0 -17.8 -7 -21.7 72 72 NNW 10 17 30.59 1036 10 16 0.00 0.00
3:53 am 03:53 Clear 0 -17.8 -8 -22.2 69 69 NW 10 17 30.61 1037 10 16 0.00 0.00
4:53 am 04:53 Clear 0 -17.8 -9 -22.8 65 65 NW 10 17 30.63 1037 10 16 0.00 0.00
5:53 am 05:53 Clear -3 -19.4 -10 -23.3 71 71 WNW 6 9 30.67 1039 10 16 0.00 0.00
6:53 am 06:53 Clear -5 -20.6 -11 -23.9 75 75 NW 9 15 30.68 1039 10 16 0.00 0.00
7:53 am 07:53 Mostly Sunny -4 -20 -12 -24.4 68 68 WNW 9 15 30.72 1040 10 16 0.00 0.00
8:53 am 08:53 Mostly Sunny -3 -19.4 -11 -23.9 68 68 NW 10 17 30.72 1040 10 16 0.00 0.00
9:53 am 09:53 Mostly Sunny -1 -18.3 -11 -23.9 62 62 NW 6 9 30.72 1040 10 16 0.00 0.00
10:53 am 10:53 Mostly Sunny 2 -16.7 -10 -23.3 57 57 N 7 11 30.72 1040 10 16 0.00 0.00
11:53 am 11:53 Mostly Sunny 4 -15.6 -9 -22.8 54 54 N 8 13 30.72 1040 10 16 0.00 0.00
12:53 pm 12:53 Mostly Sunny 7 -13.9 -8 -22.2 50 50 NNW 9 15 30.69 1039 10 16 0.00 0.00
1:53 pm 13:53 Mostly Sunny 9 -12.8 -9 -22.8 43 43 Calm 30.68 1039 10 16 0.00 0.00
2:53 pm 14:53 Mostly Sunny 10 -12.2 -10 -23.3 39 39 Calm 30.67 1039 10 16 0.00 0.00
3:53 pm 15:53 Mostly Sunny 11 -11.7 -9 -22.8 40 40 NW 5 7 30.66 1038 10 16 0.00 0.00
4:53 pm 16:53 Mostly Sunny 10 -12.2 -9 -22.8 41 41 NW 6 9 30.67 1039 10 16 0.00 0.00
5:53 pm 17:53 Partly Cloudy 7 -13.9 -10 -23.3 45 45 NW 9 15 30.65 1038 10 16 0.00 0.00
6:53 pm 18:53 Partly Cloudy 5 -15 -9 -22.8 52 52 NW 9 15 30.67 1039 10 16 0.00 0.00
7:53 pm 19:53 Partly Cloudy 5 -15 -9 -22.8 52 52 NNW 8 13 30.66 1038 10 16 0.00 0.00
8:53 pm 20:53 Mostly Cloudy 4 -15.6 -9 -22.8 54 54 NW 7 11 30.67 1039 10 16 0.00 0.00
9:53 pm 21:53 Mostly Cloudy 4 -15.6 -9 -22.8 54 54 N 5 7 30.66 1038 10 16 0.00 0.00
10:53 pm 22:53 Cloudy 4 -15.6 -9 -22.8 54 54 NNW 7 11 30.66 1038 10 16 0.00 0.00
11:53 pm 23:53 Cloudy 4 -15.6 -9 -22.8 54 54 N 6 9 30.64 1038 10 16 0.00 0.00

Powered by AerisWeather